Weather History for Wise, VA

Change the Weather History Date:

Friday, July 4, 2014

  Actual Average Record
Temperature  
Mean Temperature 64 °F -  
Max Temperature 71 °F 78 °F 87 °F (1999)
Min Temperature 57 °F 60 °F 51 °F (1996)
Degree Days  
Heating Degree Days 1    
Growing Degree Days 14 (Base 50)    
Moisture  
Dew Point 49 °F    
Average Humidity 60    
Maximum Humidity 94    
Minimum Humidity 38    
Precipitation  
Precipitation 0.00 in - - ()
Sea Level Pressure  
Sea Level Pressure 30.27 in    
Wind  
Wind Speed 6 mph (North)    
Max Wind Speed 13 mph    
Max Gust Speed 18 mph    
Visibility 10 miles    
Events      
Averages and records for this station are not official NWS values.
T = Trace of Precipitation, MM = Missing Value Source: NWS Daily Summary

Daily Weather History Graph

Daily Weather History Graph

Search for Another Location

Airport:

Trip Planner

Search our weather history database for the weather conditions in past years. The results will help you decide how hot, cold, wet, or windy it might be!

Date:

Astronomy

Jul. 04, 2014 Rise Set
Actual Time 6:15 AM EDT 8:53 PM EDT
Civil Twilight 5:45 AM EDT 9:23 PM EDT
Nautical Twilight 5:07 AM EDT 10:01 PM EDT
Astronomical Twilight 4:24 AM EDT 10:44 PM EDT
Moon 1:00 PM EDT (7/4) 12:24 AM EDT (7/4)
Length of Visible Light 15h 38m
Length of Day
14h 37m
Waxing Crescent, 42% of the Moon is Illuminated
Jul 4
Waxing Crescent
Jul 5
First Quarter
Jul 12
Full
Jul 18
Last Quarter
Jul 26
New

Hourly Weather History & Observations

Time (EDT) Temp. Dew Point Humidity Pressure Visibility Wind Dir Wind Speed Gust Speed Precip Events Conditions
12:15 AM 60.8 °F 51.8 °F 72% 30.19 in 10.0 mi NW 5.8 mph - N/A   Scattered Clouds
12:35 AM 60.8 °F 51.8 °F 72% 30.20 in 10.0 mi NNW 3.5 mph - N/A   Mostly Cloudy
12:55 AM 60.8 °F 51.8 °F 72% 30.19 in 10.0 mi Calm Calm - N/A   Scattered Clouds
1:15 AM 59.0 °F 51.8 °F 77% 30.20 in 10.0 mi NNW 3.5 mph - N/A   Clear
1:35 AM 60.8 °F 51.8 °F 72% 30.20 in 10.0 mi NNW 3.5 mph - N/A   Mostly Cloudy
1:55 AM 60.8 °F 51.8 °F 72% 30.20 in 10.0 mi NNW 4.6 mph - N/A   Overcast
2:15 AM 60.8 °F 51.8 °F 72% 30.20 in 10.0 mi NW 3.5 mph - N/A   Overcast
2:35 AM 60.8 °F 53.6 °F 77% 30.20 in 10.0 mi NNW 5.8 mph - N/A   Overcast
2:55 AM 59.0 °F 53.6 °F 82% 30.20 in 10.0 mi NNW 4.6 mph - N/A   Overcast
3:15 AM 59.0 °F 53.6 °F 82% 30.20 in 10.0 mi NNW 5.8 mph - N/A   Overcast
3:35 AM 59.0 °F 53.6 °F 82% 30.20 in 10.0 mi North 3.5 mph - N/A   Overcast
3:55 AM 59.0 °F 57.2 °F 94% 30.20 in 10.0 mi NNW 5.8 mph - N/A   Overcast
4:15 AM 59.0 °F 57.2 °F 94% 30.21 in 10.0 mi North 4.6 mph - N/A   Overcast
4:35 AM 59.0 °F 57.2 °F 94% 30.21 in 10.0 mi North 6.9 mph - N/A   Overcast
4:55 AM 59.0 °F 57.2 °F 94% 30.21 in 10.0 mi North 5.8 mph - N/A   Overcast
5:15 AM 59.0 °F 51.8 °F 77% 30.22 in 10.0 mi North 6.9 mph - N/A   Overcast
5:35 AM 59.0 °F 50.0 °F 72% 30.22 in 10.0 mi North 3.5 mph - N/A   Overcast
5:55 AM 59.0 °F 51.8 °F 77% 30.22 in 10.0 mi NNW 4.6 mph - N/A   Overcast
6:15 AM 57.2 °F 51.8 °F 82% 30.22 in 10.0 mi NNW 3.5 mph - N/A   Overcast
6:35 AM 57.2 °F 50.0 °F 77% 30.23 in 10.0 mi NNW 4.6 mph - N/A   Overcast
6:55 AM 59.0 °F 48.2 °F 67% 30.23 in 10.0 mi NNW 5.8 mph - N/A   Overcast
7:15 AM 57.2 °F 48.2 °F 72% 30.24 in 10.0 mi NNW 3.5 mph - N/A   Mostly Cloudy
7:35 AM 59.0 °F 50.0 °F 72% 30.24 in 10.0 mi NNW 4.6 mph - N/A   Scattered Clouds
7:55 AM 59.0 °F 50.0 °F 72% 30.25 in 10.0 mi NNW 4.6 mph - N/A   Clear
8:15 AM 59.0 °F 50.0 °F 72% 30.25 in 10.0 mi NNW 9.2 mph - N/A   Clear
8:35 AM 60.8 °F 50.0 °F 68% 30.26 in 10.0 mi NNW 9.2 mph - N/A   Clear
8:55 AM 60.8 °F 50.0 °F 68% 30.26 in 10.0 mi North 10.4 mph - N/A   Scattered Clouds
9:15 AM 60.8 °F 50.0 °F 68% 30.27 in 10.0 mi North 8.1 mph - N/A   Mostly Cloudy
9:35 AM 60.8 °F 50.0 °F 68% 30.28 in 10.0 mi North 10.4 mph - N/A   Overcast
9:55 AM 62.6 °F 51.8 °F 68% 30.28 in 10.0 mi North 8.1 mph - N/A   Mostly Cloudy
10:15 AM 60.8 °F 50.0 °F 68% 30.28 in 10.0 mi NNW 6.9 mph - N/A   Mostly Cloudy
10:35 AM 64.4 °F 51.8 °F 64% 30.28 in 10.0 mi North 5.8 mph - N/A   Scattered Clouds
10:55 AM 62.6 °F 50.0 °F 63% 30.29 in 10.0 mi NNW 6.9 mph - N/A   Mostly Cloudy
11:15 AM 64.4 °F 50.0 °F 59% 30.29 in 10.0 mi North 12.7 mph - N/A   Mostly Cloudy
11:35 AM 62.6 °F 48.2 °F 59% 30.30 in 10.0 mi North 10.4 mph - N/A   Scattered Clouds
12:15 PM 68.0 °F 48.2 °F 49% 30.30 in 10.0 mi North 9.2 mph - N/A   Scattered Clouds
12:35 PM 68.0 °F 48.2 °F 49% 30.30 in 10.0 mi NNE 8.1 mph 16.1 mph N/A   Scattered Clouds
12:55 PM 68.0 °F 46.4 °F 46% 30.30 in 10.0 mi North 9.2 mph 17.3 mph N/A   Scattered Clouds
1:15 PM 68.0 °F 46.4 °F 46% 30.29 in 10.0 mi NNE 10.4 mph 18.4 mph N/A   Scattered Clouds
1:35 PM 69.8 °F 50.0 °F 49% 30.29 in 10.0 mi North 8.1 mph 16.1 mph N/A   Mostly Cloudy
1:55 PM 69.8 °F 46.4 °F 43% 30.29 in 10.0 mi North 9.2 mph - N/A   Clear
2:15 PM 69.8 °F 46.4 °F 43% 30.29 in 10.0 mi North 12.7 mph 18.4 mph N/A   Clear
2:35 PM 69.8 °F 44.6 °F 40% 30.29 in 10.0 mi NNW 11.5 mph 17.3 mph N/A   Clear
2:55 PM 71.6 °F 46.4 °F 41% 30.29 in 10.0 mi NNE 11.5 mph 16.1 mph N/A   Clear
3:15 PM 71.6 °F 48.2 °F 43% 30.29 in 10.0 mi NW 8.1 mph - N/A   Clear
3:35 PM 71.6 °F 46.4 °F 41% 30.29 in 10.0 mi North 11.5 mph 16.1 mph N/A   Clear
3:55 PM 71.6 °F 46.4 °F 41% 30.29 in 10.0 mi North 6.9 mph 17.3 mph N/A   Clear
4:15 PM 71.6 °F 46.4 °F 41% 30.29 in 10.0 mi NNW 11.5 mph 17.3 mph N/A   Scattered Clouds
4:35 PM 71.6 °F 46.4 °F 41% 30.28 in 10.0 mi NNE 10.4 mph 16.1 mph N/A   Mostly Cloudy
4:55 PM 71.6 °F 46.4 °F 41% 30.29 in 10.0 mi NNW 9.2 mph - N/A   Scattered Clouds
5:15 PM 71.6 °F 46.4 °F 41% 30.28 in 10.0 mi NNW 8.1 mph - N/A   Scattered Clouds
5:35 PM 71.6 °F 44.6 °F 38% 30.28 in 10.0 mi NNE 11.5 mph - N/A   Scattered Clouds
5:55 PM 71.6 °F 46.4 °F 41% 30.28 in 10.0 mi North 9.2 mph - N/A   Scattered Clouds
6:15 PM 71.6 °F 44.6 °F 38% 30.28 in 10.0 mi North 9.2 mph 17.3 mph N/A   Scattered Clouds
6:35 PM 69.8 °F 44.6 °F 40% 30.28 in 10.0 mi North 8.1 mph - N/A   Clear
6:55 PM 69.8 °F 44.6 °F 40% 30.29 in 10.0 mi North 9.2 mph - N/A   Clear
7:15 PM 69.8 °F 44.6 °F 40% 30.30 in 10.0 mi North 8.1 mph - N/A   Clear
7:35 PM 69.8 °F 46.4 °F 43% 30.30 in 10.0 mi North 5.8 mph - N/A   Mostly Cloudy
7:55 PM 68.0 °F 46.4 °F 46% 30.31 in 10.0 mi NNE 5.8 mph - N/A   Scattered Clouds
8:15 PM 66.2 °F 46.4 °F 49% 30.31 in 10.0 mi NNE 6.9 mph - N/A   Scattered Clouds
8:35 PM 64.4 °F 46.4 °F 52% 30.31 in 10.0 mi North 5.8 mph - N/A   Clear
8:55 PM 62.6 °F 44.6 °F 52% 30.31 in 10.0 mi North 4.6 mph - N/A   Clear
9:15 PM 62.6 °F 44.6 °F 52% 30.30 in 10.0 mi North 4.6 mph - N/A   Clear
9:35 PM 62.6 °F 44.6 °F 52% 30.31 in 10.0 mi North 3.5 mph - N/A   Clear
9:55 PM 60.8 °F 44.6 °F 55% 30.32 in 10.0 mi Calm Calm - N/A   Clear
10:15 PM 60.8 °F 44.6 °F 55% 30.33 in 10.0 mi North 3.5 mph - N/A   Clear
10:35 PM 60.8 °F 44.6 °F 55% 30.33 in 10.0 mi North 3.5 mph - N/A   Clear
10:55 PM 60.8 °F 44.6 °F 55% 30.34 in 10.0 mi Calm Calm - N/A   Clear
11:15 PM 60.8 °F 44.6 °F 55% 30.34 in 10.0 mi North 3.5 mph - N/A   Clear
11:35 PM 60.8 °F 44.6 °F 55% 30.34 in 10.0 mi Calm Calm - N/A   Clear
11:55 PM 60.8 °F 44.6 °F 55% 30.34 in 10.0 mi Calm Calm - N/A   Clear